Regional Weather Roundup
Issued by NWS

Home | Current Version | Previous Version | Graphics & Text | Print | Product List | Glossary On
Versions: 1 2 3 4 5 6 7 8 9 10 11 12 13 14 15 16 17 18 19 20 21 22 23 24 25 26 27 28
000
ASUS45 KBOI 270510
RWRID

IDAHO REGIONAL WEATHER ROUNDUP
NATIONAL WEATHER SERVICE BOISE ID
1100 PM MDT TUE JUL 26 2016

NOTE: "FAIR" INDICATES FEW OR NO CLOUDS BELOW 12000 FEET
WITH NO SIGNIFICANT WEATHER AND/OR OBSTRUCTIONS TO VISIBILITY

IDZ012-014-270600-
SOUTHWEST IDAHO


CITY           SKY/WX    TMP DP  RH WIND       PRES   REMARKS
BOISE          CLEAR     86  40  19 CALM      29.94R
CALDWELL       CLEAR     81  53  37 W7        29.92R
MOUNTAIN HOME  CLEAR     84  40  20 N5        29.94R
$$

IDZ016-017-270600-
SOUTHCENTRAL IDAHO


CITY           SKY/WX    TMP DP  RH WIND       PRES   REMARKS
BURLEY         CLEAR     70  44  39 S3        30.04R
JEROME         CLEAR     77  38  24 W5        30.04R
TWIN FALLS     CLEAR     77  37  23 SW10      30.05R
$$

IDZ019>023-270600-
SOUTHEAST IDAHO


CITY           SKY/WX    TMP DP  RH WIND       PRES   REMARKS
IDAHO FALLS    CLEAR     62  46  55 N9        30.12R
POCATELLO      CLEAR     73  42  32 NE3       30.09R
REXBURG        CLEAR     68  43  40 NE6       30.13R
$$

IDZ006-010-011-018-031-032-270600-
CENTRAL IDAHO MOUNTAINS


CITY           SKY/WX    TMP DP  RH WIND       PRES   REMARKS
MCCALL         CLEAR     73  47  39 N6        30.15R
HAILEY         CLEAR     70  43  37 NW7       30.15R
STANLEY          N/A     60  35  39 CALM      30.26R
SALMON         CLEAR     61  48  63 CALM      30.12R
CHALLIS        CLEAR     66  41  40 NW8       30.16R
$$

IDZ002-004-006-007-026-270600-
NORTHERN IDAHO


CITY           SKY/WX    TMP DP  RH WIND       PRES   REMARKS
LEWISTON       PTCLDY    86  49  27 SW5       29.93R
LOWELL           N/A     69  58  67 NW3       29.97R
COEUR D`ALENE  CLOUDY    70  57  64 NE14      30.03R THUNDER
MULLAN PASS    CLEAR     65  43  44 NE3       30.25R
$$




USA.gov is the U.S. government's official web portal to all federal, state and local government web resources and services.